DW7831 Weather Reports


time (UTC)temp
F
wind
direction
speed
knots
gust
knots
rain 1hr
in
rain 24hr
in
rain mn
in
humidity
%
barometer
mb
20260504024553 37 244 0.0 0.0 0.00 0.00 0.00 61 1012.4
20260504023047 38 244 0.0 0.0 0.00 0.00 0.00 63 1012.5
20260504021543 38 244 0.0 0.0 0.00 0.00 0.00 64 1012.4
20260504020104 39 244 0.0 0.0 0.00 0.00 0.00 64 1012.3
20260504014548 40 244 0.0 0.0 0.00 0.00 0.00 64 1012.4
20260504013037 41 244 0.0 0.0 0.00 0.00 0.00 63 1012.5
20260504011526 42 244 0.0 0.0 0.00 0.00 0.00 62 1012.2
20260504010022 42 244 0.0 0.0 0.00 0.00 0.00 61 1012.0
20260504004522 43 244 0.0 0.0 0.00 0.00 0.00 59 1011.9
20260504003016 44 244 0.0 0.0 0.00 0.00 0.00 58 1011.8
20260504001512 45 244 0.0 0.0 0.00 0.00 0.00 57 1011.7
20260504000008 45 242 1.7 0.0 0.00 0.00 0.00 56 1011.8
20260503234504 46 267 1.7 0.0 0.00 0.00 0.00 55 1011.6
20260503233107 46 240 5.2 0.0 0.00 0.00 0.00 55 1011.6
20260503231558 47 252 7.0 0.0 0.00 0.00 0.00 53 1011.6
20260503230109 47 215 6.1 0.0 0.00 0.00 0.00 50 1011.5
20260503224556 48 266 1.7 0.0 0.00 0.00 0.00 49 1011.1
20260503223045 48 9 2.6 0.0 0.00 0.00 0.00 48 1011.2
20260503221539 48 232 4.3 0.0 0.00 0.00 0.00 45 1011.2
20260503220043 48 300 2.6 0.0 0.00 0.00 0.00 43 1011.1
20260503214536 48 246 2.6 0.0 0.00 0.00 0.00 42 1011.1
20260503213030 49 279 6.1 0.0 0.00 0.00 0.00 40 1011.0
20260503211525 49 254 3.5 0.0 0.00 0.00 0.00 39 1010.8
20260503210021 49 312 5.2 0.0 0.00 0.00 0.00 37 1010.9
20260503204516 50 302 4.3 0.0 0.00 0.00 0.00 34 1010.7
20260503203032 50 318 6.1 0.0 0.00 0.00 0.00 34 1011.0
20260503201507 49 288 5.2 0.0 0.00 0.00 0.00 35 1011.1
20260503200004 48 279 6.1 0.0 0.00 0.00 0.00 38 1011.1
20260503194501 47 337 5.2 0.0 0.00 0.00 0.00 39 1011.2
20260503193057 47 290 6.1 0.0 0.00 0.00 0.00 39 1011.5
20260503191553 47 340 4.3 0.0 0.00 0.00 0.00 40 1011.4
20260503190057 46 355 4.3 0.0 0.00 0.00 0.00 41 1011.6
20260503184545 46 281 4.3 0.0 0.00 0.00 0.00 41 1011.8
20260503183043 45 273 4.3 0.0 0.00 0.00 0.00 43 1012.0
20260503181538 45 355 5.2 0.0 0.00 0.00 0.00 43 1012.0
20260503180036 44 318 5.2 0.0 0.00 0.00 0.00 44 1012.1
20260503174528 43 332 4.3 0.0 0.00 0.00 0.00 47 1012.2
20260503173024 42 360 2.6 0.0 0.00 0.00 0.00 47 1012.5
20260503171520 42 267 0.9 0.0 0.00 0.00 0.00 50 1012.4
20260503081525 31 298 0.0 0.0 0.00 0.00 0.00 29 1012.5
20260503071501 31 298 0.0 0.0 0.00 0.00 0.00 22 1012.4
20260503060113 30 298 0.0 0.0 0.00 0.00 0.00 34 1013.0
20260503054601 30 298 0.0 0.0 0.00 0.00 0.00 35 1013.0
20260503053047 30 298 0.0 0.0 0.00 0.00 0.00 35 1013.0
20260503051545 30 298 0.0 0.0 0.00 0.00 0.00 37 1013.3
20260503050044 30 298 0.0 0.0 0.00 0.00 0.00 37 1013.6
20260503044542 30 298 0.0 0.0 0.00 0.00 0.00 41 1013.5
20260503043042 30 298 0.0 0.0 0.00 0.00 0.00 42 1013.5
20260503041545 30 298 0.0 0.0 0.00 0.00 0.00 45 1013.6
20260503040039 30 298 0.0 0.0 0.00 0.00 0.00 51 1013.6
20260503034535 30 298 0.0 0.0 0.00 0.00 0.01 54 1013.6
20260503033033 31 298 0.0 0.0 0.00 0.00 0.01 57 1013.7
20260503031526 31 298 0.0 0.0 0.00 0.00 0.01 60 1013.7
20260503030026 32 298 0.0 0.0 0.00 0.00 0.01 63 1013.7